This demonstration page uses our WeatherBlox Daily Observations layout. Learn more.

Left ArrowRight Arrow

Hourly Observations for June 27, 2021

Temp ( °F °C ) Dew Point ( °F °C ) Humidity (%) Winds ( mph kmh ) Pressure ( in mb ) Visibility ( mi km ) Precip ( " mm )
12:51 am 00:51 Clear 79 26.1 36 2.2 21 21 W 5 7 29.61 1003 10 16 N/A
1:51 am 01:51 Clear 81 27.2 38 3.3 21 21 N N/A 29.61 1003 10 16 N/A
2:51 am 02:51 Clear 75 23.9 36 2.2 24 24 E 5 7 29.63 1003 10 16 N/A
3:51 am 03:51 Clear 74 23.3 36 2.2 25 25 N N/A 29.64 1004 10 16 N/A
4:51 am 04:51 Clear 70 21.1 35 1.7 28 28 N 6 9 29.67 1005 10 16 N/A
5:51 am 05:51 Sunny 73 22.8 36 2.2 26 26 E 3 6 29.69 1005 10 16 N/A
6:51 am 06:51 Sunny 79 26.1 39 3.9 24 24 SSE 8 13 29.69 1006 10 16 N/A
7:51 am 07:51 Sunny 85 29.4 40 4.4 20 20 SSE 8 13 29.69 1006 7 11 N/A
8:51 am 08:51 Sunny 89 31.7 41 5 19 19 ESE 8 13 29.68 1005 10 16 N/A
9:51 am 09:51 Mostly Sunny 92 33.3 45 7.2 20 20 SSE 9 15 29.68 1005 10 16 N/A
10:51 am 10:51 Mostly Sunny 94 34.4 44 6.7 18 18 SSE 7 11 29.66 1005 10 16 N/A
11:51 am 11:51 Sunny 97 36.1 42 5.6 15 15 NW 7 11 29.63 1004 10 16 N/A
12:51 pm 12:51 Sunny 96 35.6 41 5 15 15 N N/A 29.62 1003 10 16 N/A
1:18 pm 13:18 Sunny with Nearby Thunderstorms 99 37.2 41 5 14 14 NNE 12 19 29.49 999 10 16 N/A
1:33 pm 13:33 Sunny 97 36.1 41 5 14 14 NE 14 22 29.49 999 10 16 N/A
1:51 pm 13:51 Sunny 96 35.6 40 4.4 14 14 undefined N/A 29.59 1002 10 16 N/A
2:51 pm 14:51 Mostly Cloudy 99 37.2 39 3.9 12 12 VRB 3 6 29.57 1001 10 16 N/A
3:51 pm 15:51 Mostly Cloudy 97 36.1 47 8.3 18 18 ESE 22 35 29.56 1001 10 16 N/A
4:51 pm 16:51 Mostly Sunny 94 34.4 44 6.7 18 18 ESE 14 22 29.56 1001 10 16 N/A
5:51 pm 17:51 Partly Cloudy 92 33.3 44 6.7 19 19 ESE 15 24 29.56 1001 10 16 N/A
6:51 pm 18:51 Partly Cloudy 92 33.3 43 6.1 18 18 ESE 16 26 29.57 1001 10 16 N/A
7:51 pm 19:51 Partly Cloudy 86 30 49 9.4 28 28 SE 21 33 29.62 1003 10 16 N/A
8:51 pm 20:51 Mostly Clear 82 27.8 52 11.1 35 35 SSE 16 26 29.68 1005 10 16 N/A
9:51 pm 21:51 Mostly Clear 78 25.6 52 11.1 40 40 S 16 26 29.72 1006 10 16 N/A
10:51 pm 22:51 Clear 77 25 52 11.1 42 42 S 18 30 29.74 1007 10 16 N/A
11:51 pm 23:51 Clear 76 24.4 53 11.7 45 45 SE 12 19 29.77 1008 10 16 N/A

Powered by AerisWeather